Weather History for KBVO - June, 2013

Change the Weather History Date:

Tuesday, June 25, 2013

  Actual Average (KTUL) Record (KTUL)
Temperature  
Mean Temperature 80 °F 80 °F  
Max Temperature 90 °F 90 °F 105 °F (2012)
Min Temperature 72 °F 70 °F 52 °F (1974)
Cooling Degree Days 16 15  
Month to date cooling degree days 300  
Year to date cooling degree days 534  
Since 1 June cooling degree days 300  
Growing Degree Days 30 (Base 50)    
Moisture  
Dew Point 71 °F    
Average Humidity 71    
Maximum Humidity 93    
Minimum Humidity 55    
Precipitation  
Precipitation 0.00 in 0.14 in 2.30 in (1895)
Month to date precipitation 4.06  
Year to date precipitation 20.56  
Sea Level Pressure  
Sea Level Pressure 29.83 in    
Wind  
Wind Speed 6 mph (South)    
Max Wind Speed 17 mph    
Max Gust Speed 30 mph    
Visibility 10 miles    
Events      
T = Trace of Precipitation, MM = Missing Value Source: NWS Daily Summary

Daily Weather History Graph

Daily Weather History Graph

Search for Another Location

Airport or City:

Trip Planner

Search our weather history database for the weather conditions in past years. The results will help you decide how hot, cold, wet, or windy it might be!

Date:

Astronomy

Jun. 25, 2013 Rise Set
Actual Time 6:06 AM CDT 8:46 PM CDT
Civil Twilight 5:35 AM CDT 9:17 PM CDT
Nautical Twilight 4:57 AM CDT 9:55 PM CDT
Astronomical Twilight 4:14 AM CDT 10:38 PM CDT
Moon 10:38 PM CDT (6/25) 8:43 AM CDT (6/25)
Length of Visible Light 15h 41m
Length of Day
14h 40m
Waning Gibbous, 92% of the Moon is Illuminated
Jun 25
Waning Gibbous
Jun 29
Last Quarter
Jul 8
New
Jul 15
First Quarter
Jul 22
Full

Hourly Weather History & Observations

Time (CDT) Temp. Heat Index Dew Point Humidity Pressure Visibility Wind Dir Wind Speed Gust Speed Precip Events Conditions
12:53 AM 75.9 °F - 70.0 °F 82% 29.92 in 10.0 mi Calm Calm - N/A   Clear
1:53 AM 72.0 °F - 70.0 °F 93% 29.91 in 10.0 mi Calm Calm - N/A   Clear
2:53 AM 72.0 °F - 69.1 °F 91% 29.88 in 10.0 mi Calm Calm - N/A   Clear
3:53 AM 75.9 °F - 70.0 °F 82% 29.86 in 10.0 mi SSE 9.2 mph - N/A   Clear
4:53 AM 75.0 °F - 70.0 °F 84% 29.86 in 10.0 mi South 4.6 mph - N/A   Clear
5:53 AM 75.9 °F - 70.0 °F 82% 29.86 in 10.0 mi South 5.8 mph - N/A   Clear
6:53 AM 75.9 °F - 71.1 °F 85% 29.87 in 10.0 mi SSE 5.8 mph - N/A   Clear
7:53 AM 78.1 °F - 72.0 °F 81% 29.86 in 10.0 mi SSE 6.9 mph - N/A   Clear
8:53 AM 81.0 °F 85.2 °F 72.0 °F 74% 29.86 in 10.0 mi South 12.7 mph 19.6 mph N/A   Clear
9:53 AM 84.0 °F 89.0 °F 71.1 °F 65% 29.87 in 10.0 mi South 8.1 mph 20.7 mph N/A   Clear
10:53 AM 82.9 °F 87.0 °F 70.0 °F 65% 29.86 in 10.0 mi South 11.5 mph 18.4 mph N/A   Clear
11:53 AM 81.0 °F 84.9 °F 71.1 °F 72% 29.85 in 10.0 mi South 11.5 mph 17.3 mph N/A   Scattered Clouds
12:53 PM 84.9 °F 90.7 °F 72.0 °F 65% 29.83 in 10.0 mi South 12.7 mph 24.2 mph N/A   Clear
1:53 PM 87.1 °F 93.6 °F 72.0 °F 61% 29.81 in 10.0 mi South 15.0 mph 29.9 mph N/A   Clear
2:53 PM 87.1 °F 93.6 °F 72.0 °F 61% 29.80 in 10.0 mi South 13.8 mph 23.0 mph N/A   Clear
3:53 PM 89.1 °F 95.0 °F 71.1 °F 55% 29.78 in 10.0 mi South 17.3 mph 29.9 mph N/A   Clear
4:53 PM 89.1 °F 95.0 °F 71.1 °F 55% 29.77 in 10.0 mi South 11.5 mph 23.0 mph N/A   Clear
5:53 PM 88.0 °F 92.9 °F 70.0 °F 55% 29.76 in 10.0 mi South 13.8 mph 23.0 mph N/A   Clear
6:53 PM 86.0 °F 91.5 °F 71.1 °F 61% 29.76 in 10.0 mi South 12.7 mph 23.0 mph N/A   Mostly Cloudy
7:53 PM 84.9 °F 90.1 °F 71.1 °F 63% 29.78 in 10.0 mi SSW 9.2 mph 21.9 mph N/A   Scattered Clouds
8:53 PM 82.9 °F 87.5 °F 71.1 °F 67% 29.76 in 10.0 mi South 5.8 mph - N/A   Clear
9:53 PM 82.0 °F 86.3 °F 71.1 °F 69% 29.77 in 10.0 mi South 4.6 mph - N/A   Clear
10:53 PM 82.0 °F 86.3 °F 71.1 °F 69% 29.77 in 10.0 mi South 8.1 mph - N/A   Clear
11:53 PM 80.1 °F 83.8 °F 72.0 °F 76% 29.78 in 10.0 mi South 6.9 mph - N/A   Clear